Location: Zagreb
(45.8000°N, 16.0000°E)
Time: 16:12:35
(UTC+01:00)

Tiros 1 despin weight - Visible Passes

Search period start: 05 February 2023 00:00
Search period end: 15 February 2023 00:00
Orbit: 589 x 636 km, 48.2° (Epoch: 04 February)

Date Brightness Start Highest point End Pass type
(mag) Time Alt. Az. Time Alt. Az. Time Alt. Az.
05 Feb ? 18:22:06 10° W 18:26:39 64° N 18:29:12 24° E visible
05 Feb ? 20:03:42 10° WNW 20:06:09 31° W 20:06:09 31° W visible
06 Feb ? 18:36:57 10° WNW 18:41:29 72° N 18:43:27 33° E visible
06 Feb ? 20:18:31 10° WNW 20:20:24 23° W 20:20:24 23° W visible
07 Feb ? 18:51:43 10° WNW 18:56:17 90° NNE 18:57:44 43° ESE visible
07 Feb ? 20:33:29 10° W 20:34:42 16° W 20:34:42 16° W visible
08 Feb ? 19:06:29 10° WNW 19:10:59 65° SSW 19:12:07 46° SE visible
08 Feb ? 20:48:51 10° W 20:49:04 11° W 20:49:04 11° W visible
09 Feb ? 17:39:42 10° WNW 17:44:17 76° NNE 17:48:47 10° E visible
09 Feb ? 19:21:19 10° WNW 19:25:35 41° SSW 19:26:34 36° S visible
10 Feb ? 17:54:28 10° WNW 17:59:02 83° SSW 18:03:32 10° ESE visible
10 Feb ? 19:36:21 10° W 19:40:04 25° SW 19:41:09 23° SSW visible
11 Feb ? 18:09:13 10° WNW 18:13:42 57° SSW 18:18:06 10° SE visible
11 Feb ? 19:51:55 10° W 19:54:26 15° SW 19:55:52 13° SSW visible
12 Feb ? 18:24:05 10° W 18:28:16 36° SW 18:32:22 10° SSE visible
13 Feb ? 18:39:12 10° W 18:42:41 22° SW 18:46:08 10° S visible
14 Feb ? 18:55:08 10° WSW 18:57:00 12° SW 18:58:52 10° SSW visible
